This is the latest recevied weather packets stored in our database for station/object SR9SMR. If no packets are shown the sender has not sent any weather packets the latest 10 day(s).
| Time | Temp. | Humidity | Pressure | Rain* | Wind** | Luminosity | Snow |
|---|---|---|---|---|---|---|---|
| 1787729075 | 10.56° C | 100% | 903.9 hPa | - | - | - | - |
| 1787728958 | 10.56° C | 100% | 903.6 hPa | - | - | - | - |
| 1787728947 | 10.56° C | 100% | 903.8 hPa | - | - | - | - |
| 1787728818 | 10.56° C | 100% | 904.1 hPa | - | - | - | - |
| 1787728689 | 11.11° C | 100% | 906.3 hPa | - | - | - | - |
| 1787728561 | 11.11° C | 100% | 903.6 hPa | - | - | - | - |
| 1787728497 | 11.11° C | 100% | 903.6 hPa | - | - | - | - |
| 1787728431 | 11.11° C | 100% | 903.7 hPa | - | - | - | - |
| 1787728303 | 11.67° C | 100% | 905.1 hPa | - | - | - | - |
| 1787728174 | 12.78° C | 100% | 903.2 hPa | - | - | - | - |
| 1787728110 | 12.78° C | 100% | 903.4 hPa | - | - | - | - |
| 1787728097 | 12.78° C | 100% | 903.4 hPa | - | - | - | - |
| 1787728050 | 12.78° C | 100% | 903.4 hPa | - | - | - | - |
| 1787727915 | 12.22° C | 100% | 907.1 hPa | - | - | - | - |
| 1787727852 | 12.22° C | 100% | 903.1 hPa | - | - | - | - |
| 1787727785 | 12.22° C | 100% | 903.1 hPa | - | - | - | - |
| 1787727657 | 11.67° C | 100% | 905.2 hPa | - | - | - | - |
| 1787727539 | 11.67° C | 100% | 903.2 hPa | - | - | - | - |
| 1787727421 | 11.67° C | 100% | 903.2 hPa | - | - | - | - |
| 1787727410 | 12.22° C | 100% | 903.4 hPa | - | - | - | - |
| 1787727282 | 12.22° C | 100% | 904.3 hPa | - | - | - | - |
| 1787727218 | 12.22° C | 100% | 905.9 hPa | - | - | - | - |
| 1787727152 | 12.22° C | 100% | 902.9 hPa | - | - | - | - |
| 1787727024 | 12.22° C | 100% | 903 hPa | - | - | - | - |
| 1787726895 | 12.22° C | 100% | 904.1 hPa | - | - | - | - |
* Rain since midnight (hover to see other rain measurements)
** Current wind speed in m/s (hover to see current wind gust speed)